Rockwall, TX

12:25 PM CDT on September 19, 2017 (GMT -0500)
Rockwall

Weather History for KF46 - April, 2014

Change the Weather History Date:

Friday, April 25, 2014

  Actual Average (KDFW) Record (KDFW)
Temperature  
Mean Temperature 69 °F -  
Max Temperature 83 °F 75 °F 91 °F (1925)
Min Temperature 55 °F 56 °F 33 °F (1910)
Cooling Degree Days 4    
Growing Degree Days 19 (Base 50)    
Moisture  
Dew Point 42 °F    
Average Humidity 40    
Maximum Humidity 63    
Minimum Humidity 23    
Precipitation  
Precipitation 0.00 in - - ()
Sea Level Pressure  
Sea Level Pressure 29.96 in    
Wind  
Wind Speed 8 mph (ENE)    
Max Wind Speed 15 mph    
Max Gust Speed 23 mph    
Visibility 10 miles    
Events      
Averages and records for this station are not official NWS values.
T = Trace of Precipitation, MM = Missing Value Source: NWS Daily Summary

Daily Weather History Graph

Daily Weather History Graph

Search for Another Location

Airport or City:

Trip Planner

Search our weather history database for the weather conditions in past years. The results will help you decide how hot, cold, wet, or windy it might be!

Date:

Astronomy

Apr. 25, 2014 Rise Set
Actual Time 6:44 AM CDT 8:03 PM CDT
Civil Twilight 6:18 AM CDT 8:29 PM CDT
Nautical Twilight 5:47 AM CDT 9:00 PM CDT
Astronomical Twilight 5:15 AM CDT 9:32 PM CDT
Moon 4:20 AM CDT (4/25) 4:38 PM CDT (4/25)
Length of Visible Light 14h 10m
Length of Day
13h 18m
Waning Crescent, 15% of the Moon is Illuminated
Apr 25
Waning Crescent
Apr 29
New
May 6
First Quarter
May 14
Full
May 21
Last Quarter

Hourly Weather History & Observations

Time (CDT) Temp. Dew Point Humidity Pressure Visibility Wind Dir Wind Speed Gust Speed Precip Events Conditions
12:15 AM 63.9 °F 47.8 °F 56% 29.94 in 10.0 mi North 6.9 mph - N/A   Clear
12:35 AM 62.4 °F 48.2 °F 60% 29.94 in 10.0 mi NNE 5.8 mph - N/A   Clear
12:55 AM 63.0 °F 45.5 °F 53% 29.94 in 10.0 mi NE 6.9 mph - N/A   Clear
1:15 AM 62.6 °F 44.8 °F 52% 29.94 in 10.0 mi NNE 8.1 mph - N/A   Clear
1:35 AM 61.7 °F 44.4 °F 53% 29.94 in 10.0 mi NNE 6.9 mph - N/A   Clear
1:55 AM 61.2 °F 44.1 °F 53% 29.94 in 10.0 mi NNE 6.9 mph - N/A   Clear
2:15 AM 60.6 °F 43.7 °F 54% 29.95 in 10.0 mi NNE 6.9 mph - N/A   Clear
2:35 AM 59.9 °F 43.3 °F 54% 29.95 in 10.0 mi NNE 6.9 mph - N/A   Clear
2:55 AM 59.9 °F 42.8 °F 53% 29.94 in 10.0 mi NNE 8.1 mph - N/A   Clear
3:15 AM 59.2 °F 42.8 °F 55% 29.94 in 10.0 mi NE 6.9 mph - N/A   Clear
3:35 AM 58.1 °F 43.0 °F 57% 29.94 in 10.0 mi NE 6.9 mph - N/A   Clear
3:55 AM 57.6 °F 42.8 °F 58% 29.94 in 10.0 mi NE 8.1 mph - N/A   Clear
4:15 AM 58.1 °F 41.9 °F 55% 29.95 in 10.0 mi NNE 9.2 mph - N/A   Clear
4:35 AM 58.1 °F 41.2 °F 53% 29.95 in 10.0 mi NNE 9.2 mph - N/A   Clear
4:55 AM 57.9 °F 41.0 °F 53% 29.96 in 10.0 mi NE 10.4 mph - N/A   Clear
5:15 AM 57.4 °F 40.6 °F 54% 29.96 in 10.0 mi NE 9.2 mph - N/A   Clear
5:35 AM 56.7 °F 40.8 °F 55% 29.97 in 10.0 mi NE 8.1 mph - N/A   Clear
5:55 AM 56.3 °F 41.0 °F 57% 29.97 in 10.0 mi NE 9.2 mph - N/A   Clear
6:15 AM 56.5 °F 41.2 °F 57% 29.97 in 10.0 mi NE 9.2 mph - N/A   Clear
6:35 AM 56.7 °F 41.2 °F 56% 29.98 in 10.0 mi NE 8.1 mph - N/A   Clear
6:55 AM 56.3 °F 41.5 °F 58% 29.99 in 10.0 mi NE 8.1 mph - N/A   Clear
7:15 AM 55.4 °F 42.4 °F 62% 30.00 in 10.0 mi ENE 6.9 mph - N/A   Clear
7:35 AM 55.4 °F 42.8 °F 63% 30.01 in 10.0 mi ENE 8.1 mph - N/A   Clear
7:55 AM 57.4 °F 43.0 °F 59% 30.02 in 10.0 mi ENE 10.4 mph - N/A   Clear
8:15 AM 59.9 °F 43.2 °F 54% 30.03 in 10.0 mi ENE 11.5 mph - N/A   Clear
8:35 AM 61.0 °F 43.5 °F 53% 30.04 in 10.0 mi ENE 10.4 mph - N/A   Clear
9:15 AM 65.5 °F 43.5 °F 45% 30.05 in 10.0 mi ENE 10.4 mph 17.3 mph N/A   Clear
9:35 AM 67.1 °F 42.8 °F 41% 30.06 in 10.0 mi ENE 12.7 mph - N/A   Clear
9:55 AM 68.9 °F 42.3 °F 38% 30.06 in 10.0 mi ENE 13.8 mph 18.4 mph N/A   Clear
10:15 AM 70.7 °F 39.9 °F 33% 30.06 in 10.0 mi East 15.0 mph - N/A   Clear
10:35 AM 72.0 °F 35.6 °F 26% 30.05 in 10.0 mi East 13.8 mph 21.9 mph N/A   Clear
10:55 AM 72.9 °F 34.9 °F 25% 30.05 in 10.0 mi ENE 12.7 mph 23.0 mph N/A   Clear
11:15 AM 73.8 °F 33.8 °F 23% 30.06 in 10.0 mi East 11.5 mph 19.6 mph N/A   Clear
11:35 AM 74.7 °F 36.3 °F 25% 30.06 in 10.0 mi ENE 9.2 mph - N/A   Clear
11:55 AM 76.3 °F 36.5 °F 24% 30.05 in 10.0 mi ENE 12.7 mph 17.3 mph N/A   Clear
12:15 PM 76.6 °F 38.3 °F 25% 30.05 in 10.0 mi East 8.1 mph - N/A   Clear
12:35 PM 77.9 °F 39.9 °F 26% 30.04 in 10.0 mi ESE 6.9 mph - N/A   Clear
12:55 PM 78.6 °F 40.3 °F 25% 30.04 in 10.0 mi East 9.2 mph - N/A   Clear
1:15 PM 79.9 °F 39.4 °F 23% 30.02 in 10.0 mi East 8.1 mph - N/A   Clear
1:35 PM 80.6 °F 39.6 °F 23% 30.01 in 10.0 mi ESE 8.1 mph - N/A   Clear
1:55 PM 80.8 °F 41.4 °F 25% 30.00 in 10.0 mi SE 11.5 mph - N/A   Clear
2:15 PM 81.1 °F 42.1 °F 25% 30.00 in 10.0 mi East 10.4 mph - N/A   Clear
2:35 PM 81.7 °F 40.6 °F 23% 29.99 in 10.0 mi ESE 6.9 mph - N/A   Clear
2:55 PM 81.9 °F 42.6 °F 25% 29.98 in 10.0 mi ESE 4.6 mph - N/A   Clear
3:15 PM 82.2 °F 42.6 °F 25% 29.97 in 10.0 mi ESE 8.1 mph - N/A   Clear
3:35 PM 82.2 °F 41.9 °F 24% 29.96 in 10.0 mi ESE 9.2 mph 16.1 mph N/A   Clear
3:55 PM 82.8 °F 43.7 °F 25% 29.96 in 10.0 mi ESE 8.1 mph - N/A   Clear
4:15 PM 83.1 °F 43.5 °F 25% 29.95 in 10.0 mi ESE 8.1 mph - N/A   Clear
4:35 PM 82.6 °F 43.2 °F 25% 29.93 in 10.0 mi East 10.4 mph - N/A   Clear
4:55 PM 82.4 °F 41.9 °F 24% 29.93 in 10.0 mi ESE 6.9 mph - N/A   Clear
5:15 PM 82.4 °F 43.7 °F 26% 29.92 in 10.0 mi East 6.9 mph - N/A   Clear
5:35 PM 82.4 °F 42.4 °F 24% 29.92 in 10.0 mi ESE 6.9 mph - N/A   Clear
5:55 PM 81.9 °F 43.2 °F 25% 29.92 in 10.0 mi ESE 8.1 mph - N/A   Clear
6:15 PM 81.0 °F 42.3 °F 25% 29.91 in 10.0 mi ENE 8.1 mph - N/A   Clear
6:35 PM 80.6 °F 43.3 °F 27% 29.90 in 10.0 mi East 8.1 mph - N/A   Clear
6:55 PM 79.0 °F 42.3 °F 27% 29.89 in 10.0 mi East 6.9 mph - N/A   Scattered Clouds
7:15 PM 77.2 °F 42.4 °F 29% 29.89 in 10.0 mi East 6.9 mph - N/A   Clear
7:35 PM 74.1 °F 44.1 °F 34% 29.89 in 10.0 mi East 6.9 mph - N/A   Clear
7:55 PM 72.0 °F 43.9 °F 36% 29.88 in 10.0 mi East 4.6 mph - N/A   Clear
8:15 PM 70.0 °F 43.7 °F 39% 29.88 in 10.0 mi East 5.8 mph - N/A   Clear
8:35 PM 68.7 °F 44.6 °F 42% 29.89 in 10.0 mi East 5.8 mph - N/A   Clear
8:55 PM 68.0 °F 44.8 °F 43% 29.89 in 10.0 mi East 5.8 mph - N/A   Clear
9:15 PM 68.0 °F 43.9 °F 42% 29.89 in 10.0 mi East 5.8 mph - N/A   Clear
9:35 PM 67.1 °F 43.9 °F 43% 29.90 in 10.0 mi East 6.9 mph - N/A   Clear
9:55 PM 66.6 °F 43.9 °F 44% 29.90 in 10.0 mi East 6.9 mph - N/A   Clear
10:15 PM 66.2 °F 43.7 °F 44% 29.91 in 10.0 mi East 6.9 mph - N/A   Clear
10:35 PM 65.3 °F 43.3 °F 45% 29.91 in 10.0 mi ESE 6.9 mph - N/A   Clear
10:55 PM 64.8 °F 43.7 °F 46% 29.92 in 10.0 mi ESE 6.9 mph - N/A   Clear
11:15 PM 64.6 °F 42.8 °F 45% 29.91 in 10.0 mi ESE 6.9 mph - N/A   Clear
11:35 PM 64.0 °F 42.4 °F 45% 29.90 in 10.0 mi East 6.9 mph - N/A   Clear
11:55 PM 63.5 °F 42.8 °F 47% 29.90 in 10.0 mi East 8.1 mph - N/A   Clear